Weather History for Belize, Belize

Change the Weather History Date:

Saturday, February 22, 2014

  Actual Average Record
Temperature  
Mean Temperature 82 °F -  
Max Temperature 87 °F 84 °F 93 °F (2003)
Min Temperature 78 °F - 66 °F (1999)
Cooling Degree Days 18    
Growing Degree Days 32 (Base 50)    
Moisture  
Dew Point 72 °F    
Average Humidity 70    
Maximum Humidity 84    
Minimum Humidity 55    
Precipitation  
Precipitation 0.00 in 0.08 in - ()
Sea Level Pressure  
Sea Level Pressure 29.96 in    
Wind  
Wind Speed 8 mph ()    
Max Wind Speed 14 mph    
Max Gust Speed -    
Visibility 8.1 miles    
Events      
Averages and records for this station are not official NWS values.
T = Trace of Precipitation, MM = Missing Value Source: Averaged Metar Reports

Daily Weather History Graph

Daily Weather History Graph

Search for Another Location

Airport:

Trip Planner

Search our weather history database for the weather conditions in past years. The results will help you decide how hot, cold, wet, or windy it might be!

Date:

Astronomy

Feb. 22, 2014 Rise Set
Actual Time 6:16 AM CST 5:57 PM CST
Civil Twilight 5:54 AM CST 6:19 PM CST
Nautical Twilight 5:28 AM CST 6:44 PM CST
Astronomical Twilight 5:03 AM CST 7:10 PM CST
Moon No Moon Rise 11:29 AM CST (2/22)
Length of Visible Light 12h 25m
Length of Day
11h 41m
Waning Gibbous, 50% of the Moon is Illuminated
Feb 22
Waning Gibbous
Mar 1
New
Mar 8
First Quarter
Mar 16
Full
Mar 23
Last Quarter

Hourly Weather History & Observations

Time (CST) Temp. Heat Index Dew Point Humidity Pressure Visibility Wind Dir Wind Speed Gust Speed Precip Events Conditions
12:00 AM 80 °F - 74 °F 77% 29.97 in 12 mi East 11.5 mph - -   Mostly Cloudy
3:00 AM 78 °F - 74 °F 84% 29.94 in 12 mi East 5.8 mph - -   Partly Cloudy
5:00 AM 78.8 °F - 73.4 °F 83% 29.94 in 6.2 mi East 9.2 mph - N/A   Mostly Cloudy
6:00 AM 78.8 °F - 73.4 °F 83% 29.96 in 6.2 mi East 11.5 mph - N/A   Mostly Cloudy
7:00 AM 78.8 °F - 73.4 °F 83% 29.97 in 6.2 mi ESE 9.2 mph - N/A   Scattered Clouds
8:00 AM 82.4 °F 88.2 °F 73.4 °F 74% 30.00 in 6.2 mi ESE 9.2 mph - N/A   Mostly Cloudy
9:00 AM 83 °F - 73 °F 64% 30.02 in 12 mi East 10.4 mph - -   Partly Cloudy
9:00 AM 84.2 °F 90.9 °F 73.4 °F 70% 30.01 in 6.2 mi East 10.4 mph - N/A   Scattered Clouds
10:00 AM 84.2 °F 89.6 °F 71.6 °F 66% 30.02 in 6.2 mi East 13.8 mph - N/A   Partly Cloudy
11:00 AM 84.2 °F 89.6 °F 71.6 °F 66% 30.01 in 6.2 mi ESE 9.2 mph - N/A   Partly Cloudy
12:00 PM 85 °F - 71 °F 55% 29.99 in 14 mi East 10.4 mph - -   Scattered Clouds
12:00 PM 86.0 °F 91.8 °F 71.6 °F 62% 29.98 in 6.2 mi East 10.4 mph - N/A   Partly Cloudy
1:00 PM 86.0 °F 91.8 °F 71.6 °F 62% 29.96 in 6.2 mi ESE 8.1 mph - N/A   Partly Cloudy
2:00 PM 84.2 °F 89.6 °F 71.6 °F 66% 29.93 in 6.2 mi East 10.4 mph - N/A   Scattered Clouds
3:00 PM 84 °F - 72 °F 60% 29.93 in 14 mi East 10.4 mph - -   Scattered Clouds
3:00 PM 84.2 °F 89.6 °F 71.6 °F 66% 29.92 in 6.2 mi East 10.4 mph - N/A   Partly Cloudy
4:00 PM 84.2 °F 90.9 °F 73.4 °F 70% 29.92 in 6.2 mi East 10.4 mph - N/A   Partly Cloudy
5:00 PM 82.4 °F 87.2 °F 71.6 °F 70% 29.92 in 6.2 mi East 8.1 mph - N/A   Partly Cloudy
6:00 PM 81 °F - 72 °F 68% 29.93 in 12 mi East 6.9 mph - -   Scattered Clouds
6:00 PM 80.6 °F 84.6 °F 71.6 °F 74% 29.92 in 6.2 mi East 6.9 mph - N/A   Partly Cloudy